Year,Month,Day,Hour,Minute,Value (Times are PST for temperature in C)
2006,07,24,00,00,21.80
2006,07,24,00,01,21.80
2006,07,24,00,02,21.80
2006,07,24,00,03,21.80
2006,07,24,00,04,21.80
2006,07,24,00,05,21.80
2006,07,24,00,06,21.80
2006,07,24,00,07,21.80
2006,07,24,00,08,21.80
2006,07,24,00,09,21.70
2006,07,24,00,10,21.70
2006,07,24,00,11,21.70
2006,07,24,00,12,21.70
2006,07,24,00,13,21.70
2006,07,24,00,14,21.60
2006,07,24,00,15,21.60
2006,07,24,00,16,21.60
2006,07,24,00,17,21.60
2006,07,24,00,18,21.60
2006,07,24,00,19,21.60
2006,07,24,00,20,21.60
2006,07,24,00,21,21.60
2006,07,24,00,22,21.60
2006,07,24,00,23,21.60
2006,07,24,00,24,21.60
2006,07,24,00,25,21.50
2006,07,24,00,26,21.40
2006,07,24,00,27,21.40
2006,07,24,00,28,21.40
2006,07,24,00,29,21.30
2006,07,24,00,30,21.30
2006,07,24,00,31,21.30
2006,07,24,00,32,21.30
2006,07,24,00,33,21.20
2006,07,24,00,34,21.10
2006,07,24,00,35,21.10
2006,07,24,00,36,21.10
2006,07,24,00,37,21.00
2006,07,24,00,38,20.90
2006,07,24,00,39,20.80
2006,07,24,00,40,20.70
2006,07,24,00,41,20.70
2006,07,24,00,42,20.60
2006,07,24,00,43,20.50
2006,07,24,00,44,20.50
2006,07,24,00,45,20.40
2006,07,24,00,46,20.40
2006,07,24,00,47,20.40
2006,07,24,00,48,20.30
2006,07,24,00,49,20.30
2006,07,24,00,50,20.30
2006,07,24,00,51,20.20
2006,07,24,00,52,20.20
2006,07,24,00,53,20.20
2006,07,24,00,54,20.20
2006,07,24,00,55,20.10
2006,07,24,00,56,20.00
2006,07,24,00,57,19.90
2006,07,24,00,58,19.90
2006,07,24,00,59,19.80
2006,07,24,01,00,19.80
2006,07,24,01,01,19.70
2006,07,24,01,02,19.70
2006,07,24,01,03,19.70
2006,07,24,01,04,19.60
2006,07,24,01,05,19.60
2006,07,24,01,06,19.60
2006,07,24,01,07,19.60
2006,07,24,01,08,19.60
2006,07,24,01,09,19.60
2006,07,24,01,10,19.60
2006,07,24,01,11,19.70
2006,07,24,01,12,19.70
2006,07,24,01,13,19.90
2006,07,24,01,14,19.90
2006,07,24,01,15,20.00
2006,07,24,01,16,20.10
2006,07,24,01,17,20.10
2006,07,24,01,18,20.10
2006,07,24,01,19,20.10
2006,07,24,01,20,20.10
2006,07,24,01,21,20.10
2006,07,24,01,22,20.10
2006,07,24,01,23,20.20
2006,07,24,01,24,20.20
2006,07,24,01,25,20.20
2006,07,24,01,26,20.20
2006,07,24,01,27,20.10
2006,07,24,01,28,20.00
2006,07,24,01,29,19.90
2006,07,24,01,30,19.90
2006,07,24,01,31,19.80
2006,07,24,01,32,19.70
2006,07,24,01,33,19.70
2006,07,24,01,34,19.60
2006,07,24,01,35,19.60
2006,07,24,01,36,19.70
2006,07,24,01,37,19.70
2006,07,24,01,38,19.80
2006,07,24,01,39,19.80
2006,07,24,01,40,19.80
2006,07,24,01,41,19.70
2006,07,24,01,42,19.60
2006,07,24,01,43,19.60
2006,07,24,01,44,19.50
2006,07,24,01,45,19.50
2006,07,24,01,46,19.50
2006,07,24,01,47,19.40
2006,07,24,01,48,19.40
2006,07,24,01,49,19.30
2006,07,24,01,50,19.20
2006,07,24,01,51,19.10
2006,07,24,01,52,19.00
2006,07,24,01,53,18.90
2006,07,24,01,54,18.80
2006,07,24,01,55,18.80
2006,07,24,01,56,18.80
2006,07,24,01,57,18.60
2006,07,24,01,58,18.50
2006,07,24,01,59,18.40
2006,07,24,02,00,18.30
2006,07,24,02,01,18.20
2006,07,24,02,02,18.10
2006,07,24,02,03,18.00
2006,07,24,02,04,17.90
2006,07,24,02,05,17.90
2006,07,24,02,06,17.80
2006,07,24,02,07,17.70
2006,07,24,02,08,17.70
2006,07,24,02,09,17.60
2006,07,24,02,10,17.60
2006,07,24,02,11,17.60
2006,07,24,02,12,17.60
2006,07,24,02,13,17.50
2006,07,24,02,14,17.30
2006,07,24,02,15,17.30
2006,07,24,02,16,17.30
2006,07,24,02,17,17.30
2006,07,24,02,18,17.30
2006,07,24,02,19,17.30
2006,07,24,02,20,17.30
2006,07,24,02,21,17.20
2006,07,24,02,22,17.30
2006,07,24,02,23,17.30
2006,07,24,02,24,17.30
2006,07,24,02,25,17.30
2006,07,24,02,26,17.30
2006,07,24,02,27,17.30
2006,07,24,02,28,17.40
2006,07,24,02,29,17.40
2006,07,24,02,30,17.50
2006,07,24,02,31,17.60
2006,07,24,02,32,17.80
2006,07,24,02,33,17.80
2006,07,24,02,34,18.10
2006,07,24,02,35,18.20
2006,07,24,02,36,18.30
2006,07,24,02,37,18.40
2006,07,24,02,38,18.40
2006,07,24,02,39,18.40
2006,07,24,02,40,18.50
2006,07,24,02,41,18.50
2006,07,24,02,42,18.60
2006,07,24,02,43,18.60
2006,07,24,02,44,18.60
2006,07,24,02,45,18.70
2006,07,24,02,46,18.70
2006,07,24,02,47,18.70
2006,07,24,02,48,18.70
2006,07,24,02,49,18.70
2006,07,24,02,50,18.60
2006,07,24,02,51,18.60
2006,07,24,02,52,18.60
2006,07,24,02,53,18.70
2006,07,24,02,54,18.70
2006,07,24,02,55,18.70
2006,07,24,02,56,18.70
2006,07,24,02,57,18.70
2006,07,24,02,58,18.70
2006,07,24,02,59,18.70
2006,07,24,03,00,18.70
2006,07,24,03,01,18.70
2006,07,24,03,02,18.70
2006,07,24,03,03,18.70
2006,07,24,03,04,18.70
2006,07,24,03,05,18.70
2006,07,24,03,06,18.70
2006,07,24,03,07,18.70
2006,07,24,03,08,18.70
2006,07,24,03,09,18.70
2006,07,24,03,10,18.70
2006,07,24,03,11,18.70
2006,07,24,03,12,18.80
2006,07,24,03,13,18.80
2006,07,24,03,14,18.80
2006,07,24,03,15,18.70
2006,07,24,03,16,18.70
2006,07,24,03,17,18.70
2006,07,24,03,18,18.70
2006,07,24,03,19,18.70
2006,07,24,03,20,18.60
2006,07,24,03,21,18.60
2006,07,24,03,22,18.60
2006,07,24,03,23,18.60
2006,07,24,03,24,18.60
2006,07,24,03,25,18.60
2006,07,24,03,26,18.70
2006,07,24,03,27,18.70
2006,07,24,03,28,18.70
2006,07,24,03,29,18.70
2006,07,24,03,30,18.70
2006,07,24,03,31,18.70
2006,07,24,03,32,18.70
2006,07,24,03,33,18.70
2006,07,24,03,34,18.70
2006,07,24,03,35,18.70
2006,07,24,03,36,18.70
2006,07,24,03,37,18.70
2006,07,24,03,38,18.60
2006,07,24,03,39,18.60
2006,07,24,03,40,18.60
2006,07,24,03,41,18.60
2006,07,24,03,42,18.60
2006,07,24,03,43,18.50
2006,07,24,03,44,18.50
2006,07,24,03,45,18.50
2006,07,24,03,46,18.40
2006,07,24,03,47,18.40
2006,07,24,03,48,18.40
2006,07,24,03,49,18.40
2006,07,24,03,50,18.40
2006,07,24,03,51,18.40
2006,07,24,03,52,18.40
2006,07,24,03,53,18.40
2006,07,24,03,54,18.30
2006,07,24,03,55,18.30
2006,07,24,03,56,18.20
2006,07,24,03,57,18.20
2006,07,24,03,58,18.20
2006,07,24,03,59,18.20
2006,07,24,04,00,18.10
2006,07,24,04,01,18.10
2006,07,24,04,02,18.00
2006,07,24,04,03,17.90
2006,07,24,04,04,17.90
2006,07,24,04,05,17.90
2006,07,24,04,06,17.90
2006,07,24,04,07,17.90
2006,07,24,04,08,17.90
2006,07,24,04,09,17.90
2006,07,24,04,10,17.90
2006,07,24,04,11,17.80
2006,07,24,04,12,17.80
2006,07,24,04,13,17.70
2006,07,24,04,14,17.70
2006,07,24,04,15,17.70
2006,07,24,04,16,17.70
2006,07,24,04,17,17.70
2006,07,24,04,18,17.70
2006,07,24,04,19,17.70
2006,07,24,04,20,17.70
2006,07,24,04,21,17.70
2006,07,24,04,22,17.60
2006,07,24,04,23,17.50
2006,07,24,04,24,17.40
2006,07,24,04,25,17.40
2006,07,24,04,26,17.30
2006,07,24,04,27,17.30
2006,07,24,04,28,17.30
2006,07,24,04,29,17.30
2006,07,24,04,30,17.30
2006,07,24,04,31,17.30
2006,07,24,04,32,17.30
2006,07,24,04,33,17.30
2006,07,24,04,34,17.30
2006,07,24,04,35,17.30
2006,07,24,04,36,17.30
2006,07,24,04,37,17.30
2006,07,24,04,38,17.20
2006,07,24,04,39,17.20
2006,07,24,04,40,17.20
2006,07,24,04,41,17.20
2006,07,24,04,42,17.10
2006,07,24,04,43,17.10
2006,07,24,04,44,17.10
2006,07,24,04,45,17.10
2006,07,24,04,46,17.10
2006,07,24,04,47,17.00
2006,07,24,04,48,17.00
2006,07,24,04,49,17.00
2006,07,24,04,50,17.00
2006,07,24,04,51,17.00
2006,07,24,04,52,17.00
2006,07,24,04,53,17.00
2006,07,24,04,54,17.00
2006,07,24,04,55,17.10
2006,07,24,04,56,17.20
2006,07,24,04,57,17.20
2006,07,24,04,58,17.30
2006,07,24,04,59,17.30
2006,07,24,05,00,17.30
2006,07,24,05,01,17.30
2006,07,24,05,02,17.30
2006,07,24,05,03,17.40
2006,07,24,05,04,17.40
2006,07,24,05,05,17.40
2006,07,24,05,06,17.40
2006,07,24,05,07,17.50
2006,07,24,05,08,17.50
2006,07,24,05,09,17.50
2006,07,24,05,10,17.50
2006,07,24,05,11,17.60
2006,07,24,05,12,17.60
2006,07,24,05,13,17.60
2006,07,24,05,14,17.60
2006,07,24,05,15,17.60
2006,07,24,05,16,17.60
2006,07,24,05,17,17.60
2006,07,24,05,18,17.60
2006,07,24,05,19,17.60
2006,07,24,05,20,17.60
2006,07,24,05,21,17.60
2006,07,24,05,22,17.50
2006,07,24,05,23,17.50
2006,07,24,05,24,17.50
2006,07,24,05,25,17.50
2006,07,24,05,26,17.50
2006,07,24,05,27,17.50
2006,07,24,05,28,17.50
2006,07,24,05,29,17.50
2006,07,24,05,30,17.40
2006,07,24,05,31,17.40
2006,07,24,05,32,17.40
2006,07,24,05,33,17.40
2006,07,24,05,34,17.30
2006,07,24,05,35,17.30
2006,07,24,05,36,17.30
2006,07,24,05,37,17.30
2006,07,24,05,38,17.30
2006,07,24,05,39,17.30
2006,07,24,05,40,17.20
2006,07,24,05,41,17.20
2006,07,24,05,42,17.20
2006,07,24,05,43,17.20
2006,07,24,05,44,17.20
2006,07,24,05,45,17.20
2006,07,24,05,46,17.20
2006,07,24,05,47,17.20
2006,07,24,05,48,17.20
2006,07,24,05,49,17.20
2006,07,24,05,50,17.20
2006,07,24,05,51,17.20
2006,07,24,05,52,17.10
2006,07,24,05,53,17.10
2006,07,24,05,54,17.10
2006,07,24,05,55,17.10
2006,07,24,05,56,17.10
2006,07,24,05,57,17.10
2006,07,24,05,58,17.10
2006,07,24,05,59,17.10
2006,07,24,06,00,17.10
2006,07,24,06,01,17.10
2006,07,24,06,02,17.10
2006,07,24,06,03,17.10
2006,07,24,06,04,17.10
2006,07,24,06,05,17.10
2006,07,24,06,06,17.10
2006,07,24,06,07,17.10
2006,07,24,06,08,17.10
2006,07,24,06,09,17.10
2006,07,24,06,10,17.10
2006,07,24,06,11,17.10
2006,07,24,06,12,17.10
2006,07,24,06,13,17.20
2006,07,24,06,14,17.30
2006,07,24,06,15,17.30
2006,07,24,06,16,17.40
2006,07,24,06,17,17.50
2006,07,24,06,18,17.50
2006,07,24,06,19,17.60
2006,07,24,06,20,17.70
2006,07,24,06,21,17.70
2006,07,24,06,22,17.70
2006,07,24,06,23,17.90
2006,07,24,06,24,18.00
2006,07,24,06,25,18.10
2006,07,24,06,26,18.20
2006,07,24,06,27,18.20
2006,07,24,06,28,18.30
2006,07,24,06,29,18.30
2006,07,24,06,30,18.40
2006,07,24,06,31,18.50
2006,07,24,06,32,18.60
2006,07,24,06,33,18.70
2006,07,24,06,34,18.70
2006,07,24,06,35,18.80
2006,07,24,06,36,18.80
2006,07,24,06,37,18.90
2006,07,24,06,38,19.00
2006,07,24,06,39,19.10
2006,07,24,06,40,19.10
2006,07,24,06,41,19.20
2006,07,24,06,42,19.30
2006,07,24,06,43,19.30
2006,07,24,06,44,19.30
2006,07,24,06,45,19.30
2006,07,24,06,46,19.40
2006,07,24,06,47,19.40
2006,07,24,06,48,19.40
2006,07,24,06,49,19.50
2006,07,24,06,50,19.50
2006,07,24,06,51,19.50
2006,07,24,06,52,19.60
2006,07,24,06,53,19.60
2006,07,24,06,54,19.70
2006,07,24,06,55,19.70
2006,07,24,06,56,19.70
2006,07,24,06,57,19.80
2006,07,24,06,58,19.70
2006,07,24,06,59,19.70
2006,07,24,07,00,19.70
2006,07,24,07,01,19.60
2006,07,24,07,02,19.70
2006,07,24,07,03,19.70
2006,07,24,07,04,19.70
2006,07,24,07,05,19.80
2006,07,24,07,06,19.80
2006,07,24,07,07,19.80
2006,07,24,07,08,19.80
2006,07,24,07,09,19.80
2006,07,24,07,10,19.80
2006,07,24,07,11,19.80
2006,07,24,07,12,19.80
2006,07,24,07,13,19.80
2006,07,24,07,14,19.80
2006,07,24,07,15,19.80
2006,07,24,07,16,19.80
2006,07,24,07,17,19.80
2006,07,24,07,18,19.80
2006,07,24,07,19,19.80
2006,07,24,07,20,19.90
2006,07,24,07,21,20.00
2006,07,24,07,22,20.20
2006,07,24,07,23,20.20
2006,07,24,07,24,20.30
2006,07,24,07,25,20.40
2006,07,24,07,26,20.50
2006,07,24,07,27,20.70
2006,07,24,07,28,20.80
2006,07,24,07,29,20.80
2006,07,24,07,30,21.10
2006,07,24,07,31,21.20
2006,07,24,07,32,21.30
2006,07,24,07,33,21.40
2006,07,24,07,34,21.50
2006,07,24,07,35,21.60
2006,07,24,07,36,21.60
2006,07,24,07,37,21.80
2006,07,24,07,38,21.80
2006,07,24,07,39,22.00
2006,07,24,07,40,22.00
2006,07,24,07,41,22.00
2006,07,24,07,42,22.10
2006,07,24,07,43,22.00
2006,07,24,07,44,22.00
2006,07,24,07,45,22.00
2006,07,24,07,46,22.00
2006,07,24,07,47,22.00
2006,07,24,07,48,22.00
2006,07,24,07,49,22.10
2006,07,24,07,50,22.10
2006,07,24,07,51,22.10
2006,07,24,07,52,22.20
2006,07,24,07,53,22.20
2006,07,24,07,54,22.30
2006,07,24,07,55,22.30
2006,07,24,07,56,22.40
2006,07,24,07,57,22.40
2006,07,24,07,58,22.50
2006,07,24,07,59,22.60
2006,07,24,08,00,22.60
2006,07,24,08,01,22.70
2006,07,24,08,02,22.70
2006,07,24,08,03,22.70
2006,07,24,08,04,22.70
2006,07,24,08,05,22.70
2006,07,24,08,06,22.70
2006,07,24,08,07,22.70
2006,07,24,08,08,22.70
2006,07,24,08,09,22.70
2006,07,24,08,10,22.70
2006,07,24,08,11,22.80
2006,07,24,08,12,22.70
2006,07,24,08,13,22.70
2006,07,24,08,14,22.70
2006,07,24,08,15,22.70
2006,07,24,08,16,22.70
2006,07,24,08,17,22.70
2006,07,24,08,18,22.70
2006,07,24,08,19,22.70
2006,07,24,08,20,22.80
2006,07,24,08,21,22.80
2006,07,24,08,22,22.80
2006,07,24,08,23,22.90
2006,07,24,08,24,22.90
2006,07,24,08,25,22.90
2006,07,24,08,26,22.90
2006,07,24,08,27,22.90
2006,07,24,08,28,22.90
2006,07,24,08,29,22.90
2006,07,24,08,30,22.90
2006,07,24,08,31,22.80
2006,07,24,08,32,22.80
2006,07,24,08,33,22.90
2006,07,24,08,34,22.90
2006,07,24,08,35,22.90
2006,07,24,08,36,22.90
2006,07,24,08,37,22.90
2006,07,24,08,38,22.90
2006,07,24,08,39,22.90
2006,07,24,08,40,22.80
2006,07,24,08,41,22.80
2006,07,24,08,42,22.80
2006,07,24,08,43,22.80
2006,07,24,08,44,22.80
2006,07,24,08,45,22.80
2006,07,24,08,46,22.80
2006,07,24,08,47,22.70
2006,07,24,08,48,22.70
2006,07,24,08,49,22.70
2006,07,24,08,50,22.70
2006,07,24,08,51,22.60
2006,07,24,08,52,22.60
2006,07,24,08,53,22.60
2006,07,24,08,54,22.60
2006,07,24,08,55,22.60
2006,07,24,08,56,22.60
2006,07,24,08,57,22.60
2006,07,24,08,58,22.70
2006,07,24,08,59,22.70
2006,07,24,09,00,22.70
2006,07,24,09,01,22.70
2006,07,24,09,02,22.70
2006,07,24,09,03,22.70
2006,07,24,09,04,22.70
2006,07,24,09,05,22.70
2006,07,24,09,06,22.70
2006,07,24,09,07,22.80
2006,07,24,09,08,22.80
2006,07,24,09,09,22.80
2006,07,24,09,10,22.90
2006,07,24,09,11,22.90
2006,07,24,09,12,22.90
2006,07,24,09,13,22.90
2006,07,24,09,14,22.90
2006,07,24,09,15,22.90
2006,07,24,09,16,22.90
2006,07,24,09,17,22.90
2006,07,24,09,18,23.00
2006,07,24,09,19,23.10
2006,07,24,09,20,23.10
2006,07,24,09,21,23.10
2006,07,24,09,22,23.20
2006,07,24,09,23,23.20
2006,07,24,09,24,23.30
2006,07,24,09,25,23.30
2006,07,24,09,26,23.40
2006,07,24,09,27,23.40
2006,07,24,09,28,23.40
2006,07,24,09,29,23.40
2006,07,24,09,30,23.40
2006,07,24,09,31,23.30
2006,07,24,09,32,23.30
2006,07,24,09,33,23.30
2006,07,24,09,34,23.30
2006,07,24,09,35,23.40
2006,07,24,09,36,23.40
2006,07,24,09,37,23.40
2006,07,24,09,38,23.40
2006,07,24,09,39,23.40
2006,07,24,09,40,23.60
2006,07,24,09,41,23.60
2006,07,24,09,42,23.70
2006,07,24,09,43,23.70
2006,07,24,09,44,23.70
2006,07,24,09,45,23.80
2006,07,24,09,46,23.80
2006,07,24,09,47,23.70
2006,07,24,09,48,23.70
2006,07,24,09,49,23.70
2006,07,24,09,50,23.70
2006,07,24,09,51,23.70
2006,07,24,09,52,23.80
2006,07,24,09,53,23.80
2006,07,24,09,54,23.80
2006,07,24,09,55,23.80
2006,07,24,09,56,23.80
2006,07,24,09,57,23.80
2006,07,24,09,58,23.80
2006,07,24,09,59,23.90
2006,07,24,10,00,23.90
2006,07,24,10,01,23.90
2006,07,24,10,02,23.90
2006,07,24,10,03,23.80
2006,07,24,10,04,23.80
2006,07,24,10,05,23.80
2006,07,24,10,06,23.80
2006,07,24,10,07,23.80
2006,07,24,10,08,23.80
2006,07,24,10,09,23.80
2006,07,24,10,10,23.80
2006,07,24,10,11,23.80
2006,07,24,10,12,23.90
2006,07,24,10,13,24.00
2006,07,24,10,14,24.10
2006,07,24,10,15,24.10
2006,07,24,10,16,24.10
2006,07,24,10,17,24.10
2006,07,24,10,18,24.10
2006,07,24,10,19,24.10
2006,07,24,10,20,24.10
2006,07,24,10,21,24.20
2006,07,24,10,22,24.30
2006,07,24,10,23,24.30
2006,07,24,10,24,24.30
2006,07,24,10,25,24.30
2006,07,24,10,26,24.30
2006,07,24,10,27,24.30
2006,07,24,10,28,24.30
2006,07,24,10,29,24.30
2006,07,24,10,30,24.30
2006,07,24,10,31,24.30
2006,07,24,10,32,24.30
2006,07,24,10,33,24.40
2006,07,24,10,34,24.40
2006,07,24,10,35,24.50
2006,07,24,10,36,24.50
2006,07,24,10,37,24.60
2006,07,24,10,38,24.60
2006,07,24,10,39,24.60
2006,07,24,10,40,24.60
2006,07,24,10,41,24.60
2006,07,24,10,42,24.60
2006,07,24,10,43,24.60
2006,07,24,10,44,24.60
2006,07,24,10,45,24.60
2006,07,24,10,46,24.70
2006,07,24,10,47,24.70
2006,07,24,10,48,24.80
2006,07,24,10,49,25.00
2006,07,24,10,50,25.00
2006,07,24,10,51,25.00
2006,07,24,10,52,24.90
2006,07,24,10,53,24.80
2006,07,24,10,54,24.70
2006,07,24,10,55,24.70
2006,07,24,10,56,24.80
2006,07,24,10,57,24.90
2006,07,24,10,58,24.90
2006,07,24,10,59,25.00
2006,07,24,11,00,25.00
2006,07,24,11,01,25.00
2006,07,24,11,02,25.00
2006,07,24,11,03,25.00
2006,07,24,11,04,25.10
2006,07,24,11,05,25.10
2006,07,24,11,06,25.10
2006,07,24,11,07,25.00
2006,07,24,11,08,25.10
2006,07,24,11,09,25.10
2006,07,24,11,10,25.00
2006,07,24,11,11,24.90
2006,07,24,11,12,24.80
2006,07,24,11,13,24.80
2006,07,24,11,14,24.70
2006,07,24,11,15,24.70
2006,07,24,11,16,24.80
2006,07,24,11,17,24.80
2006,07,24,11,18,24.90
2006,07,24,11,19,25.00
2006,07,24,11,20,25.10
2006,07,24,11,21,25.10
2006,07,24,11,22,25.10
2006,07,24,11,23,25.20
2006,07,24,11,24,25.20
2006,07,24,11,25,25.20
2006,07,24,11,26,25.30
2006,07,24,11,27,25.30
2006,07,24,11,28,25.20
2006,07,24,11,29,25.20
2006,07,24,11,30,25.20
2006,07,24,11,31,25.00
2006,07,24,11,32,24.80
2006,07,24,11,33,24.60
2006,07,24,11,34,24.50
2006,07,24,11,35,24.40
2006,07,24,11,36,24.40
2006,07,24,11,37,24.40
2006,07,24,11,38,24.50
2006,07,24,11,39,24.50
2006,07,24,11,40,24.50
2006,07,24,11,41,24.50
2006,07,24,11,42,24.40
2006,07,24,11,43,24.40
2006,07,24,11,44,24.40
2006,07,24,11,45,24.50
2006,07,24,11,46,24.60
2006,07,24,11,47,24.70
2006,07,24,11,48,24.70
2006,07,24,11,49,24.80
2006,07,24,11,50,24.80
2006,07,24,11,51,24.90
2006,07,24,11,52,24.90
2006,07,24,11,53,25.10
2006,07,24,11,54,25.10
2006,07,24,11,55,25.20
2006,07,24,11,56,25.20
2006,07,24,11,57,25.10
2006,07,24,11,58,25.10
2006,07,24,11,59,25.20
2006,07,24,12,00,25.20
2006,07,24,12,01,25.20
2006,07,24,12,02,25.20
2006,07,24,12,03,25.20
2006,07,24,12,04,25.20
2006,07,24,12,05,25.10
2006,07,24,12,06,25.10
2006,07,24,12,07,25.10
2006,07,24,12,08,25.20
2006,07,24,12,09,25.20
2006,07,24,12,10,25.20
2006,07,24,12,11,25.30
2006,07,24,12,12,25.30
2006,07,24,12,13,25.40
2006,07,24,12,14,25.40
2006,07,24,12,15,25.50
2006,07,24,12,16,25.50
2006,07,24,12,17,25.50
2006,07,24,12,18,25.50
2006,07,24,12,19,25.50
2006,07,24,12,20,25.50
2006,07,24,12,21,25.50
2006,07,24,12,22,25.50
2006,07,24,12,23,25.60
2006,07,24,12,24,25.60
2006,07,24,12,25,25.60
2006,07,24,12,26,25.70
2006,07,24,12,27,25.70
2006,07,24,12,28,25.80
2006,07,24,12,29,25.90
2006,07,24,12,30,26.10
2006,07,24,12,31,26.20
2006,07,24,12,32,26.30
2006,07,24,12,33,26.40
2006,07,24,12,34,26.40
2006,07,24,12,35,26.40
2006,07,24,12,36,26.60
2006,07,24,12,37,26.60
2006,07,24,12,38,26.70
2006,07,24,12,39,26.70
2006,07,24,12,40,26.60
2006,07,24,12,41,26.60
2006,07,24,12,42,26.60
2006,07,24,12,43,26.60
2006,07,24,12,44,26.50
2006,07,24,12,45,26.40
2006,07,24,12,46,26.40
2006,07,24,12,47,26.50
2006,07,24,12,48,26.60
2006,07,24,12,49,26.60
2006,07,24,12,50,26.60
2006,07,24,12,51,26.60
2006,07,24,12,52,26.60
2006,07,24,12,53,26.60
2006,07,24,12,54,26.70
2006,07,24,12,55,26.90
2006,07,24,12,56,26.90
2006,07,24,12,57,27.10
2006,07,24,12,58,27.20
2006,07,24,12,59,27.20
2006,07,24,13,00,27.30
2006,07,24,13,01,27.20
2006,07,24,13,02,27.10
2006,07,24,13,03,26.90
2006,07,24,13,04,26.80
2006,07,24,13,05,26.80
2006,07,24,13,06,26.60
2006,07,24,13,07,26.60
2006,07,24,13,08,26.60
2006,07,24,13,09,26.60
2006,07,24,13,10,26.60
2006,07,24,13,11,26.60
2006,07,24,13,12,26.70
2006,07,24,13,13,26.80
2006,07,24,13,14,26.80
2006,07,24,13,15,26.70
2006,07,24,13,16,26.50
2006,07,24,13,17,26.40
2006,07,24,13,18,26.40
2006,07,24,13,19,26.40
2006,07,24,13,20,26.40
2006,07,24,13,21,26.20
2006,07,24,13,22,26.30
2006,07,24,13,23,26.20
2006,07,24,13,24,26.30
2006,07,24,13,25,26.40
2006,07,24,13,26,26.40
2006,07,24,13,27,26.40
2006,07,24,13,28,26.40
2006,07,24,13,29,26.40
2006,07,24,13,30,26.40
2006,07,24,13,31,26.40
2006,07,24,13,32,26.40
2006,07,24,13,33,26.40
2006,07,24,13,34,26.40
2006,07,24,13,35,26.50
2006,07,24,13,36,26.60
2006,07,24,13,37,26.60
2006,07,24,13,38,26.60
2006,07,24,13,39,26.60
2006,07,24,13,40,26.60
2006,07,24,13,41,26.50
2006,07,24,13,42,26.40
2006,07,24,13,43,26.40
2006,07,24,13,44,26.40
2006,07,24,13,45,26.40
2006,07,24,13,46,26.40
2006,07,24,13,47,26.40
2006,07,24,13,48,26.40
2006,07,24,13,49,26.30
2006,07,24,13,50,26.30
2006,07,24,13,51,26.30
2006,07,24,13,52,26.30
2006,07,24,13,53,26.20
2006,07,24,13,54,26.20
2006,07,24,13,55,26.20
2006,07,24,13,56,26.30
2006,07,24,13,57,26.40
2006,07,24,13,58,26.40
2006,07,24,13,59,26.40
2006,07,24,14,00,26.40
2006,07,24,14,01,26.40
2006,07,24,14,02,26.30
2006,07,24,14,03,26.30
2006,07,24,14,04,26.20
2006,07,24,14,05,26.20
2006,07,24,14,06,26.20
2006,07,24,14,07,26.10
2006,07,24,14,08,26.20
2006,07,24,14,09,26.30
2006,07,24,14,10,26.30
2006,07,24,14,11,26.30
2006,07,24,14,12,26.30
2006,07,24,14,13,26.30
2006,07,24,14,14,26.30
2006,07,24,14,15,26.40
2006,07,24,14,16,26.60
2006,07,24,14,17,26.60
2006,07,24,14,18,26.60
2006,07,24,14,19,26.60
2006,07,24,14,20,26.60
2006,07,24,14,21,26.60
2006,07,24,14,22,26.60
2006,07,24,14,23,26.60
2006,07,24,14,24,26.40
2006,07,24,14,25,26.50
2006,07,24,14,26,26.60
2006,07,24,14,27,26.60
2006,07,24,14,28,26.60
2006,07,24,14,29,26.60
2006,07,24,14,30,26.60
2006,07,24,14,31,26.70
2006,07,24,14,32,26.80
2006,07,24,14,33,26.80
2006,07,24,14,34,26.90
2006,07,24,14,35,26.90
2006,07,24,14,36,26.90
2006,07,24,14,37,27.00
2006,07,24,14,38,27.10
2006,07,24,14,39,27.10
2006,07,24,14,40,27.10
2006,07,24,14,41,27.20
2006,07,24,14,42,27.30
2006,07,24,14,43,27.30
2006,07,24,14,44,27.30
2006,07,24,14,45,27.30
2006,07,24,14,46,27.40
2006,07,24,14,47,27.40
2006,07,24,14,48,27.30
2006,07,24,14,49,27.30
2006,07,24,14,50,27.10
2006,07,24,14,51,27.10
2006,07,24,14,52,27.00
2006,07,24,14,53,26.90
2006,07,24,14,54,26.70
2006,07,24,14,55,26.60
2006,07,24,14,56,26.50
2006,07,24,14,57,26.40
2006,07,24,14,58,26.30
2006,07,24,14,59,26.30
2006,07,24,15,00,26.40
2006,07,24,15,01,26.30
2006,07,24,15,02,26.10
2006,07,24,15,03,26.10
2006,07,24,15,04,26.00
2006,07,24,15,05,26.00
2006,07,24,15,06,26.10
2006,07,24,15,07,26.30
2006,07,24,15,08,26.30
2006,07,24,15,09,26.40
2006,07,24,15,10,26.40
2006,07,24,15,11,26.60
2006,07,24,15,12,26.60
2006,07,24,15,13,26.60
2006,07,24,15,14,26.70
2006,07,24,15,15,26.80
2006,07,24,15,16,26.80
2006,07,24,15,17,26.80
2006,07,24,15,18,26.80
2006,07,24,15,19,26.80
2006,07,24,15,20,26.70
2006,07,24,15,21,26.80
2006,07,24,15,22,26.80
2006,07,24,15,23,27.00
2006,07,24,15,24,27.10
2006,07,24,15,25,27.10
2006,07,24,15,26,27.20
2006,07,24,15,27,27.20
2006,07,24,15,28,27.20
2006,07,24,15,29,27.10
2006,07,24,15,30,27.10
2006,07,24,15,31,27.20
2006,07,24,15,32,27.20
2006,07,24,15,33,27.20
2006,07,24,15,34,27.20
2006,07,24,15,35,27.20
2006,07,24,15,36,27.30
2006,07,24,15,37,27.20
2006,07,24,15,38,27.10
2006,07,24,15,39,27.10
2006,07,24,15,40,27.10
2006,07,24,15,41,27.00
2006,07,24,15,42,26.90
2006,07,24,15,43,26.90
2006,07,24,15,44,26.80
2006,07,24,15,45,26.90
2006,07,24,15,46,27.00
2006,07,24,15,47,27.10
2006,07,24,15,48,27.20
2006,07,24,15,49,27.30
2006,07,24,15,50,27.30
2006,07,24,15,51,27.30
2006,07,24,15,52,27.30
2006,07,24,15,53,27.20
2006,07,24,15,54,27.20
2006,07,24,15,55,27.20
2006,07,24,15,56,27.20
2006,07,24,15,57,27.30
2006,07,24,15,58,27.30
2006,07,24,15,59,27.30
2006,07,24,16,00,27.30
2006,07,24,16,01,27.30
2006,07,24,16,02,27.30
2006,07,24,16,03,27.40
2006,07,24,16,04,27.50
2006,07,24,16,05,27.60
2006,07,24,16,06,27.60
2006,07,24,16,07,27.60
2006,07,24,16,08,27.70
2006,07,24,16,09,27.70
2006,07,24,16,10,27.80
2006,07,24,16,11,27.80
2006,07,24,16,12,27.80
2006,07,24,16,13,27.80
2006,07,24,16,14,27.80
2006,07,24,16,15,27.80
2006,07,24,16,16,27.70
2006,07,24,16,17,27.70
2006,07,24,16,18,27.60
2006,07,24,16,19,27.60
2006,07,24,16,20,27.60
2006,07,24,16,21,27.60
2006,07,24,16,22,27.60
2006,07,24,16,23,27.60
2006,07,24,16,24,27.60
2006,07,24,16,25,27.70
2006,07,24,16,26,27.60
2006,07,24,16,27,27.50
2006,07,24,16,28,27.40
2006,07,24,16,29,27.40
2006,07,24,16,30,27.30
2006,07,24,16,31,27.40
2006,07,24,16,32,27.40
2006,07,24,16,33,27.50
2006,07,24,16,34,27.60
2006,07,24,16,35,27.60
2006,07,24,16,36,27.60
2006,07,24,16,37,27.60
2006,07,24,16,38,27.60
2006,07,24,16,39,27.60
2006,07,24,16,40,27.60
2006,07,24,16,41,27.60
2006,07,24,16,42,27.50
2006,07,24,16,43,27.40
2006,07,24,16,44,27.50
2006,07,24,16,45,27.60
2006,07,24,16,46,27.60
2006,07,24,16,47,27.70
2006,07,24,16,48,27.60
2006,07,24,16,49,27.70
2006,07,24,16,50,27.70
2006,07,24,16,51,27.70
2006,07,24,16,52,27.60
2006,07,24,16,53,27.50
2006,07,24,16,54,27.40
2006,07,24,16,55,27.40
2006,07,24,16,56,27.40
2006,07,24,16,57,27.40
2006,07,24,16,58,27.40
2006,07,24,16,59,27.50
2006,07,24,17,00,27.40
2006,07,24,17,01,27.30
2006,07,24,17,02,27.30
2006,07,24,17,03,27.30
2006,07,24,17,04,27.30
2006,07,24,17,05,27.30
2006,07,24,17,06,27.10
2006,07,24,17,07,27.00
2006,07,24,17,08,26.90
2006,07,24,17,09,26.90
2006,07,24,17,10,26.80
2006,07,24,17,11,26.80
2006,07,24,17,12,26.70
2006,07,24,17,13,26.70
2006,07,24,17,14,26.70
2006,07,24,17,15,26.50
2006,07,24,17,16,26.40
2006,07,24,17,17,26.40
2006,07,24,17,18,26.40
2006,07,24,17,19,26.50